Terug naar catalogus

INTELSAT 3-F8

ActiefCommunicatieMEO
NORAD 4478·PAYLOAD· XX

Gelanceerd Jul 23, 1970 vanaf Cape Canaveral Space Force Station

Loading…

Volgende Passages (komende 24 uur)

TLE

VersSource: Space-Track

Epoch: Sep 14, 2026, 21:57 UTC

1 04478U 70055A   26257.91489405 -.00000320  00000-0  00000-0 0  9998
2 04478   5.6750  68.2877 0319949 119.8359  47.9922  1.02266177123749

Volg INTELSAT 3-F8 in realtime met AllMySat

Download on the App Store